Location: *
(55.5817°S, 142.4781°W)
Time: 05:55:10
(UTC+00:00)

NOSS 3-3 (A) - Pass Details

Date: 29 April 2025
Orbit: 719 x 1490 km, 63.4° (Epoch: 30 April)

Event Time Altitude Azimuth Distance (km) Brightness Sun altitude
Exits shadow 13:52:49 48° 277° (W) 1,642 4.7 -25.3°
Maximum altitude 13:55:16 70° 211° (SSW) 1,312 4.5 -25.0°
Drops below altitude 10° 14:02:23 10° 127° (SE) 2,932 7.3 -24.0°
Sets 14:04:50 0° 124° (ESE) 3,783 8.2 -23.7°
